Temperature
17 17 18 18 15 13 15 16 17 18 18 18 18 18 16 16 17 16 15 15 15 16 15 15 15 15 15 15 15 15 15 15 15 15 15 15 15 15 15 15 14 14 14 14 14 14 14 14 14
17 17 18 17 14 14 15 16 17 17 18 18 18 17 16 15 15 15 15 15 15 15 15 15 15 15 15 15 15 15 15 15 15 15 15 14 14 14 14 14 14 14 14 14 14 14 14 14 14
17 17 17 13 13 14 16 17 16 17 18 18 17 16 15 15 15 15 15 15 15 15 15 15 15 15 15 15 15 15 15 15 15 14 14 14 14 14 14 14 14 14 14 14 14 14 14 14 14
17 17 16 13 14 15 16 16 16 16 18 18 16 15 15 15 15 15 15 15 15 15 15 15 15 15 15 15 15 15 15 15 14 14 14 14 14 14 14 14 14 14 14 14 14 14 14 14 14
16 16 13 13 14 15 15 16 17 16 16 16 16 14 14 14 15 15 15 15 15 15 15 15 15 15 14 14 14 14 14 14 14 14 14 14 14 14 14 14 14 13 13 14 14 14 14 13 13
16 13 12 13 14 15 15 16 16 15 15 16 15 13 13 14 14 14 14 14 14 14 14 14 14 14 14 14 14 14 14 14 14 14 14 14 14 14 14 14 13 13 13 13 13 13 13 13 13
14 11 12 13 14 15 15 16 15 14 14 15 16 13 13 13 14 14 14 14 14 14 14 14 14 14 14 14 14 14 14 14 14 14 13 13 13 13 13 13 13 13 13 13 13 13 13 13 13
15 11 13 13 14 15 15 16 16 15 15 15 15 13 13 13 13 13 13 13 13 13 13 13 13 14 14 13 13 13 13 13 13 13 13 13 13 13 13 13 13 13 13 13 13 13 13 13 13
14 11 12 13 14 14 14 14 15 15 15 15 14 15 14 14 13 13 13 13 13 13 13 13 13 13 13 13 13 13 13 13 13 13 13 13 13 13 13 13 13 13 13 13 13 13 13 13 13
13 10 12 13 13 13 13 14 14 14 13 13 13 14 14 13 13 13 13 13 13 13 13 13 13 13 13 13 13 13 13 13 13 13 13 13 12 12 12 12 12 12 12 13 13 13 13 13 13
12 10 11 12 13 13 13 13 14 13 12 13 13 13 13 13 13 13 13 13 13 13 12 12 13 12 12 12 13 13 13 13 12 12 12 12 12 12 12 12 12 12 12 12 12 12 12 12 12
11 11 12 12 13 13 12 13 12 13 13 14 14 13 13 13 13 13 12 12 12 12 12 12 12 12 12 12 12 13 12 12 12 12 12 12 12 12 12 12 12 12 12 12 12 12 12 12 12
10 11 11 12 12 12 12 12 12 12 13 13 13 13 13 12 12 12 12 12 12 12 12 12 12 12 12 12 12 12 12 12 12 12 12 12 12 12 12 12 11 11 11 12 12 12 12 12 12
10 10 11 11 12 12 11 11 11 12 13 13 13 12 12 12 12 12 11 11 12 12 12 12 12 12 12 12 12 12 12 12 12 12 12 11 11 11 11 11 11 11 11 11 11 11 11 11 11
10 9 10 10 11 11 11 10 10 12 12 12 12 12 12 12 11 11 11 11 11 11 11 11 11 11 11 11 11 11 11 11 11 11 11 11 11 11 11 11 11 11 11 11 11 11 11 11 11
10 9 9 10 10 10 10 10 10 12 12 11 11 11 11 11 11 11 11 11 11 11 11 11 11 11 11 11 11 11 11 11 11 11 11 10 10 10 10 10 10 10 10 10 10 10 10 10 10
9 8 9 10 9 9 9 9 10 11 11 10 11 11 11 11 11 11 11 11 11 11 11 11 11 11 11 11 11 10 10 10 10 10 10 10 10 10 10 10 10 10 10 10 10 10 10 10 10
8 8 9 9 9 9 8 8 9 10 10 10 10 10 10 10 11 11 11 10 10 10 10 10 10 10 10 10 10 10 10 10 10 10 10 9 9 9 9 9 9 9 9 9 9 9 9 9 9
8 8 8 9 9 8 8 8 8 9 9 9 9 9 10 10 10 10 10 10 10 10 10 10 10 10 10 10 10 10 10 10 9 9 9 9 9 9 9 9 9 9 9 9 9 9 9 9 8
8 8 8 8 8 8 7 7 8 8 8 9 9 9 9 9 9 9 9 9 9 9 9 9 9 9 9 9 9 9 9 9 9 9 9 9 9 8 8 8 8 8 8 8 8 8 8 8 8
7 7 7 7 7 7 7 7 8 8 8 9 9 9 9 9 9 9 9 9 9 9 9 9 9 9 9 8 8 8 8 8 8 8 8 8 8 8 8 8 8 8 8 8 8 7 7 7 7
7 7 7 7 6 6 7 6 7 7 7 7 8 8 9 8 8 8 8 8 8 8 8 8 8 8 8 8 8 8 8 8 8 8 8 8 7 7 7 7 7 7 7 7 7 7 6 6 6
7 7 7 7 6 5 5 5 6 6 7 7 7 8 8 8 8 8 8 8 8 8 8 7 7 7 7 7 7 7 7 7 7 7 7 7 7 7 7 7 7 7 7 7 7 6 6 6 6
6 6 6 4 4 5 5 5 6 6 7 7 7 8 8 8 8 8 8 8 8 7 7 7 7 7 7 7 7 7 6 6 6 6 6 7 6 6 6 6 6 6 6 6 6 6 6 5 5
6 5 4 5 4 5 5 5 6 6 6 7 7 7 8 8 8 7 7 7 7 7 7 7 7 6 6 6 6 6 6 6 6 6 6 6 6 6 6 6 6 6 6 5 5 5 5 5 5
5 5 5 5 4 4 5 5 6 6 6 7 7 7 7 7 7 7 7 7 6 6 6 6 6 6 6 5 5 5 5 5 5 5 5 5 5 5 5 5 5 5 5 5 5 4 4 4 4
5 4 5 4 3 3 4 4 5 6 5 5 6 6 6 6 6 6 6 6 6 6 6 5 5 5 5 5 5 5 4 4 4 4 4 4 4 4 4 4 4 4 4 4 4 4 4 4 4
5 4 3 3 4 5 5 5 5 5 5 5 5 5 6 6 6 6 6 6 5 5 5 5 5 5 4 4 4 4 4 3 3 3 3 3 4 3 4 4 4 4 3 3 3 3 3 3 3
4 4 3 2 3 4 4 5 6 5 5 5 5 5 5 5 5 5 5 5 5 5 4 4 4 4 4 3 3 3 3 3 3 3 3 3 3 3 3 3 3 3 3 3 3 3 3 3 3
4 4 3 3 3 2 2 4 6 4 4 5 5 5 5 5 5 5 5 4 4 4 4 3 3 3 3 3 3 3 3 2 2 2 2 2 2 2 2 2 2 2 2 2 2 2 2 2 2
Wind_Speed
14 10 2 4 5 4 2 4 2 1 1 1 2 6 7 4 3 4 2 3 6 7 8 9 9 9 10 10 9 9 9 9 8 8 8 9 9 9 9 8 9 9 9 9 8 9 9 8 8
8 4 5 5 5 2 4 4 3 4 3 2 3 4 5 3 2 4 2 3 6 8 9 9 9 9 10 9 9 8 8 8 8 7 8 9 9 9 8 8 8 8 8 8 8 8 7 8 8
6 2 4 4 4 6 5 4 4 2 0 1 3 4 4 3 2 3 2 4 6 7 9 9 10 9 9 9 8 8 8 8 7 7 8 8 8 8 8 8 7 7 7 7 7 7 6 6 7
3 4 5 3 4 6 5 4 3 1 2 3 4 4 3 1 2 3 3 5 7 7 8 10 10 10 9 9 8 8 8 7 7 7 7 7 7 7 7 7 7 7 7 6 6 6 6 6 6
4 4 3 1 5 5 4 3 2 2 1 1 3 4 2 4 1 4 5 7 7 6 7 9 10 10 9 8 8 8 8 7 7 6 7 7 7 6 6 6 6 6 6 5 5 5 5 5 5
4 4 3 4 5 4 3 1 1 1 1 1 4 4 1 2 3 4 5 5 6 6 7 8 9 9 9 8 8 7 7 7 6 6 6 6 6 6 6 5 5 5 5 4 4 3 3 4 4
4 4 4 5 3 3 3 1 2 2 1 1 3 5 1 1 1 3 5 5 5 6 5 5 7 8 8 8 7 7 7 7 6 5 5 5 5 5 5 5 5 4 4 3 3 3 2 2 3
4 4 2 3 4 4 2 0 1 2 2 1 3 6 4 4 2 4 5 5 5 4 4 3 4 5 6 6 7 7 7 6 6 5 5 5 4 4 4 4 4 4 3 3 2 2 1 1 1
4 3 4 4 4 3 1 1 2 1 2 2 2 2 3 5 4 5 4 4 3 3 2 2 3 3 5 5 6 7 7 6 5 5 5 5 4 3 3 3 3 3 3 2 2 2 1 0 1
4 4 6 3 2 1 1 0 0 2 2 1 2 3 4 5 5 5 4 4 3 2 1 1 2 2 3 4 5 5 5 5 4 4 4 4 3 3 2 3 3 3 3 2 2 1 1 1 1
3 5 3 2 1 1 1 2 1 2 2 4 4 5 5 4 4 4 4 4 4 3 2 1 1 2 2 2 3 3 3 3 3 3 3 3 2 2 2 2 1 2 2 1 1 1 0 1 2
2 2 3 2 1 1 1 1 1 2 6 5 6 7 6 6 6 6 5 4 3 2 2 2 1 1 1 2 2 3 3 2 2 3 3 3 1 1 1 1 1 1 1 1 1 1 1 2 2
2 2 1 1 1 1 1 3 3 5 5 3 4 5 6 6 5 4 4 3 3 3 2 2 2 2 1 1 1 2 2 2 3 3 3 3 2 2 2 1 1 1 1 1 2 2 2 2 3
2 1 2 3 3 2 2 3 2 7 4 3 4 5 5 5 5 4 3 3 3 3 3 2 2 1 2 1 1 1 2 2 3 2 2 3 3 2 2 2 1 1 2 2 2 3 2 2 2
1 1 4 3 3 2 0 5 6 7 2 4 5 5 4 4 4 4 5 4 4 3 3 3 2 1 1 1 1 1 1 2 2 2 2 2 2 3 2 2 2 2 2 2 2 2 2 2 2
2 1 3 4 2 2 3 8 7 3 4 5 5 4 4 4 3 4 4 3 3 2 2 2 1 1 1 0 1 1 2 1 1 1 2 2 2 2 2 2 2 2 1 1 2 1 2 2 2
1 2 4 5 3 2 4 8 7 3 4 6 6 5 4 3 3 3 2 2 2 2 2 1 1 1 1 0 1 1 2 1 0 0 1 1 2 2 2 1 2 2 1 2 2 1 2 2 3
4 4 4 5 3 2 5 9 10 5 5 7 6 5 5 4 5 3 2 2 2 2 2 2 1 0 1 1 1 1 1 0 0 0 1 1 2 2 2 1 2 2 2 2 2 2 2 2 3
4 4 5 5 2 2 7 10 11 8 5 7 6 6 5 4 3 1 2 2 2 2 2 1 1 1 2 1 1 1 0 0 0 1 1 1 1 2 1 2 2 2 2 3 3 2 2 2 1
2 2 3 4 2 2 6 10 9 7 6 7 7 6 6 3 1 1 2 3 2 2 1 2 1 1 1 0 0 1 1 0 1 0 1 1 1 1 1 2 2 2 2 2 2 2 2 2 1
4 5 4 4 4 3 3 7 6 5 3 3 4 4 4 5 4 3 2 3 2 1 1 1 1 1 1 1 1 2 2 2 1 1 1 1 2 2 2 2 2 2 2 2 3 3 2 2 2
5 5 4 2 1 4 0 5 7 4 3 3 4 3 4 4 4 4 3 3 2 2 1 2 2 2 2 2 2 1 0 1 2 2 2 2 2 2 2 2 2 2 2 2 3 3 2 3 3
4 2 2 2 2 3 2 3 8 3 4 6 5 5 5 5 6 5 4 4 3 2 2 2 2 2 2 2 2 1 0 1 2 2 2 2 2 2 3 2 2 2 2 3 3 3 3 3 4
2 3 3 3 2 4 5 5 7 4 7 5 4 4 5 5 5 4 3 3 3 2 2 2 2 2 2 2 2 1 0 1 2 3 3 3 3 2 3 3 3 3 3 3 3 4 4 4 4
2 4 2 3 2 6 3 4 9 7 6 7 7 6 5 5 4 3 3 3 2 2 1 2 2 2 1 1 1 1 1 2 2 3 3 3 3 3 3 3 3 3 3 4 3 4 5 5 5
4 5 6 5 5 5 2 6 7 5 3 3 5 5 4 3 3 3 3 3 2 2 1 1 1 1 1 1 1 1 2 1 2 3 3 3 3 4 4 3 3 4 4 4 3 4 5 4 5
4 4 4 4 1 3 6 6 6 1 0 2 3 3 3 3 3 3 3 3 2 2 1 1 1 1 1 1 1 2 2 2 2 3 2 2 3 3 3 3 4 4 4 4 3 4 4 4 5
3 5 4 4 3 4 6 5 5 5 5 4 4 4 3 2 2 3 2 2 1 1 1 1 1 0 1 1 1 2 2 2 2 2 3 3 3 3 4 4 4 4 4 4 4 4 4 4 4
3 3 4 4 4 4 4 7 5 7 7 7 6 5 4 4 3 3 2 1 1 1 2 1 1 1 2 2 1 2 2 2 2 3 3 3 3 3 4 4 4 4 5 4 3 4 4 4 4
4 5 6 4 5 4 4 7 4 4 5 5 4 4 4 4 4 3 2 2 1 1 1 0 1 1 2 2 2 2 2 3 3 3 3 3 3 3 4 4 4 5 5 4 4 5 5 5 6
Wind_Direction
332 333 38 56 59 58 236 255 234 288 342 334 61 94 103 98 121 152 177 134 125 143 147 144 140 137 133 127 125 124 119 115 113 111 114 114 110 107 103 99 93 90 86 87 85 82 82 84 85
332 346 52 62 100 151 259 249 226 232 199 154 60 78 81 78 79 110 116 139 129 138 138 137 137 140 137 133 131 129 125 122 118 113 118 118 115 111 107 103 97 92 87 85 84 84 84 82 79
330 35 78 83 138 186 217 229 207 243 333 107 63 51 93 120 128 152 174 150 127 129 134 137 134 139 141 138 136 132 129 126 123 119 122 119 117 114 111 109 103 98 93 88 84 82 82 79 76
41 48 60 93 207 223 216 227 213 163 16 47 99 67 67 28 174 172 145 128 123 128 132 138 136 139 142 141 138 137 136 133 130 124 124 123 120 114 109 109 107 104 100 95 90 86 81 74 69
59 78 87 206 232 243 243 239 179 149 139 43 100 107 61 339 88 120 121 120 124 128 135 141 142 140 140 143 142 141 140 137 133 132 131 130 126 120 114 112 113 112 108 104 96 88 85 75 65
60 76 124 214 234 255 268 241 138 97 105 83 103 109 147 316 88 109 111 113 124 132 135 142 145 143 141 141 139 139 139 138 136 134 135 132 132 131 127 123 119 120 118 113 108 96 86 75 60
112 118 181 206 227 261 261 246 143 163 141 240 138 120 155 279 151 113 102 101 105 116 123 130 144 144 144 144 143 139 138 138 137 132 133 130 126 135 140 138 131 128 130 130 125 113 95 76 58
130 122 181 218 211 241 273 112 136 141 198 314 111 142 187 215 169 101 95 94 97 98 108 113 130 140 144 148 149 143 139 138 134 129 129 129 128 130 139 145 142 138 140 147 151 145 127 70 41
98 98 202 216 203 239 320 55 352 355 91 33 48 156 177 152 122 102 94 84 96 93 89 97 106 131 145 147 147 141 141 141 134 130 123 117 114 119 130 146 151 154 158 164 175 179 183 189 353
99 170 218 227 204 223 327 60 303 39 37 17 15 38 109 126 127 133 141 147 148 144 138 97 111 117 135 148 140 139 143 143 141 138 132 127 125 130 137 152 167 175 177 175 179 194 228 256 313
145 189 219 256 277 287 333 318 315 138 237 218 198 176 155 150 157 159 169 173 185 178 172 161 148 124 120 138 141 143 142 140 143 144 145 138 131 135 128 126 146 181 194 185 208 215 269 274 289
164 239 218 242 295 305 264 285 324 215 226 219 189 171 169 172 183 185 191 188 189 183 193 176 168 143 116 132 150 149 147 150 150 158 157 144 140 153 159 152 162 175 213 197 189 223 256 272 272
212 256 268 262 325 265 261 253 254 249 244 200 156 160 177 186 193 194 194 197 175 178 193 194 169 157 147 133 154 144 159 164 164 163 168 160 161 190 183 198 201 212 221 217 216 227 242 262 274
198 238 276 279 274 279 248 269 242 249 228 181 169 179 188 192 187 182 188 215 204 194 196 193 171 156 143 140 153 154 156 162 150 155 174 177 173 181 189 203 207 219 231 238 231 230 235 238 246
112 13 317 272 236 231 49 292 235 243 200 197 203 197 195 202 190 195 200 206 215 204 197 189 179 141 142 160 161 140 141 150 154 167 176 184 180 174 175 200 218 229 235 239 247 250 238 250 254
64 65 277 277 218 206 165 258 262 242 191 219 222 214 208 217 213 208 197 202 212 184 177 181 167 120 114 184 163 131 132 140 181 190 191 196 194 184 169 199 230 239 222 230 234 234 251 257 256
58 217 243 277 235 189 185 248 265 247 207 224 224 218 216 231 252 229 198 185 187 156 147 156 166 162 190 159 127 121 125 126 215 241 211 212 211 199 181 219 240 242 229 220 240 246 239 255 262
210 220 240 248 252 206 231 254 271 261 231 231 225 217 214 220 238 228 181 163 152 122 107 112 90 116 141 83 74 73 93 92 31 303 255 230 222 217 199 225 241 239 234 231 230 244 250 247 250
190 205 245 259 273 248 249 261 271 269 245 239 229 214 217 226 235 181 144 138 115 89 84 92 86 54 85 87 87 92 300 263 215 293 304 291 265 242 226 242 236 227 231 231 227 230 244 262 261
218 236 263 292 314 266 269 274 273 258 232 223 217 208 206 209 200 124 129 115 117 108 82 71 88 60 53 73 196 178 175 213 217 321 326 299 288 263 244 239 237 228 221 259 249 233 239 266 253
230 219 233 256 327 332 314 297 275 277 246 221 213 201 193 188 184 179 144 128 121 114 112 79 64 64 37 28 50 43 40 17 2 336 288 303 303 271 241 237 237 233 212 243 257 229 218 246 260
235 227 221 227 325 282 234 281 277 259 266 240 234 215 199 189 180 177 158 141 142 156 124 79 64 56 43 53 71 82 64 277 275 277 279 296 300 294 268 244 238 233 230 237 259 242 236 223 248
215 223 212 210 187 286 248 222 281 269 244 242 229 214 201 191 181 181 176 163 151 136 113 78 63 55 48 49 57 66 344 282 299 307 304 307 306 298 294 266 240 241 241 243 258 258 241 230 237
164 54 45 53 90 263 226 198 272 239 222 216 212 204 198 192 184 185 175 139 125 113 93 83 73 47 42 41 42 52 323 305 319 312 304 307 307 296 295 289 265 251 248 248 251 257 244 239 240
94 100 34 351 321 248 223 212 252 251 228 202 198 200 198 189 177 172 164 151 143 131 104 83 80 38 16 23 10 339 302 283 267 280 284 291 296 299 289 294 277 269 261 254 252 259 246 238 238
198 158 165 204 232 271 264 234 255 268 244 192 171 168 169 173 174 170 171 165 159 146 109 80 68 24 1 345 316 310 304 295 274 270 272 273 276 281 288 283 280 275 275 271 262 263 251 243 240
164 198 178 147 189 264 262 274 295 250 181 166 162 161 184 181 170 163 155 148 143 137 135 130 88 14 342 321 315 317 310 303 296 290 282 278 283 294 297 294 286 280 276 276 274 267 261 251 247
161 153 121 149 185 256 278 262 241 227 224 209 199 202 208 184 167 160 153 145 142 145 122 72 70 5 324 328 315 323 312 299 293 299 294 293 296 302 299 301 296 286 281 278 269 269 263 263 261
164 166 162 161 178 189 259 268 228 208 206 203 211 208 202 192 182 178 175 159 139 101 85 63 29 357 341 327 313 312 316 312 303 309 304 299 303 307 303 302 302 297 288 286 282 275 274 266 269
196 192 163 175 226 201 213 267 280 223 206 197 210 217 211 190 184 179 170 150 131 117 92 41 328 313 303 302 312 316 321 321 317 313 314 309 305 307 307 310 308 308 305 294 278 275 274 267 267
Height
1510 1510 1511 1513 1516 1527 1527 1519 1513 1510 1509 1509 1507 1507 1509 1513 1516 1522 1519 1517 1519 1520 1521 1523 1524 1525 1525 1526 1527 1528 1528 1529 1529 1530 1530 1530 1530 1530 1530 1531 1531 1530 1530 1530 1530 1530 1530 1530 1530
1509 1510 1512 1513 1522 1533 1527 1516 1512 1509 1508 1508 1508 1508 1510 1513 1514 1516 1516 1517 1519 1520 1521 1522 1523 1524 1525 1526 1527 1527 1528 1529 1529 1529 1530 1530 1530 1530 1530 1530 1531 1531 1531 1531 1531 1530 1530 1530 1530
1509 1510 1512 1515 1524 1527 1519 1511 1509 1507 1507 1507 1509 1510 1511 1513 1514 1515 1516 1517 1518 1519 1520 1521 1523 1524 1524 1525 1526 1527 1527 1528 1528 1529 1529 1529 1530 1530 1530 1530 1530 1531 1531 1531 1530 1530 1530 1530 1530
1509 1511 1513 1520 1521 1517 1512 1508 1507 1507 1507 1507 1508 1511 1513 1515 1515 1515 1515 1516 1517 1518 1519 1521 1522 1523 1524 1525 1525 1526 1526 1527 1528 1528 1529 1529 1529 1530 1530 1530 1530 1530 1530 1530 1530 1530 1530 1530 1530
1509 1510 1517 1522 1518 1513 1508 1507 1507 1507 1507 1508 1509 1511 1513 1514 1514 1515 1515 1516 1516 1517 1518 1520 1521 1522 1522 1523 1524 1525 1525 1526 1527 1527 1528 1528 1528 1529 1529 1530 1530 1530 1530 1530 1530 1530 1530 1530 1530
1509 1511 1522 1524 1516 1510 1508 1507 1507 1507 1508 1508 1509 1511 1513 1514 1514 1514 1515 1515 1516 1517 1517 1519 1520 1520 1521 1522 1523 1523 1524 1525 1525 1526 1527 1527 1527 1528 1528 1528 1529 1529 1529 1529 1529 1529 1529 1529 1529
1509 1514 1519 1517 1515 1511 1508 1506 1507 1507 1508 1509 1508 1510 1512 1513 1514 1514 1514 1515 1516 1516 1517 1517 1518 1519 1520 1521 1521 1522 1523 1523 1524 1525 1525 1526 1526 1526 1527 1527 1528 1528 1528 1528 1528 1528 1528 1529 1529
1508 1512 1515 1515 1513 1510 1507 1506 1507 1507 1507 1508 1509 1509 1510 1511 1513 1514 1514 1514 1515 1515 1516 1516 1517 1518 1518 1519 1520 1521 1521 1522 1523 1523 1524 1524 1525 1525 1525 1526 1526 1527 1527 1527 1527 1527 1527 1527 1527
1507 1516 1517 1513 1511 1508 1506 1506 1507 1507 1507 1507 1507 1508 1509 1510 1511 1512 1513 1513 1513 1514 1514 1515 1515 1516 1517 1517 1518 1519 1520 1520 1521 1522 1522 1523 1523 1523 1524 1524 1525 1525 1525 1525 1526 1526 1526 1526 1526
1507 1516 1512 1508 1507 1506 1506 1506 1506 1506 1506 1506 1506 1507 1508 1509 1510 1510 1510 1510 1511 1512 1513 1513 1514 1514 1515 1515 1516 1517 1518 1518 1519 1520 1521 1521 1522 1522 1522 1523 1523 1524 1524 1524 1524 1524 1524 1524 1524
1506 1510 1508 1506 1506 1505 1505 1506 1506 1506 1506 1504 1504 1504 1506 1507 1508 1508 1508 1509 1509 1510 1511 1511 1512 1512 1513 1513 1514 1515 1515 1516 1517 1518 1519 1519 1520 1520 1520 1521 1521 1522 1522 1522 1522 1522 1522 1522 1522
1506 1506 1506 1505 1505 1505 1505 1505 1505 1504 1503 1503 1503 1503 1504 1505 1505 1506 1507 1507 1508 1508 1509 1509 1510 1510 1511 1511 1512 1513 1513 1514 1514 1515 1516 1517 1517 1518 1518 1519 1519 1519 1519 1520 1520 1520 1520 1520 1520
1506 1506 1505 1505 1504 1504 1504 1504 1504 1501 1501 1501 1502 1502 1503 1503 1504 1504 1505 1506 1506 1506 1507 1507 1508 1508 1509 1509 1510 1510 1511 1511 1512 1513 1514 1514 1515 1515 1516 1516 1516 1516 1517 1517 1517 1517 1517 1517 1518
1505 1505 1505 1504 1503 1503 1503 1502 1503 1498 1499 1500 1500 1501 1501 1502 1502 1502 1502 1503 1504 1504 1505 1505 1505 1506 1506 1507 1507 1507 1508 1509 1510 1510 1511 1512 1512 1512 1513 1513 1513 1513 1513 1514 1514 1514 1514 1514 1515
1504 1506 1505 1503 1502 1502 1503 1502 1499 1496 1497 1497 1498 1498 1499 1500 1500 1500 1500 1501 1502 1502 1503 1503 1503 1504 1504 1504 1505 1505 1505 1506 1507 1508 1508 1509 1509 1509 1510 1510 1510 1510 1510 1510 1511 1511 1511 1511 1511
1505 1508 1508 1503 1502 1501 1506 1503 1496 1495 1495 1495 1495 1496 1496 1497 1497 1498 1499 1499 1499 1500 1500 1501 1501 1501 1501 1501 1502 1502 1502 1503 1504 1505 1505 1506 1506 1506 1506 1507 1507 1507 1507 1507 1507 1507 1507 1507 1507
1508 1511 1508 1504 1501 1501 1503 1501 1493 1493 1493 1492 1493 1493 1494 1494 1494 1496 1496 1497 1497 1497 1498 1498 1499 1499 1499 1499 1499 1499 1500 1500 1501 1501 1502 1502 1503 1503 1503 1503 1503 1503 1503 1503 1503 1503 1503 1503 1503
1509 1510 1507 1505 1500 1501 1501 1498 1492 1491 1491 1490 1490 1491 1491 1491 1491 1492 1493 1494 1495 1495 1496 1496 1496 1496 1497 1497 1497 1497 1497 1497 1498 1498 1498 1499 1499 1499 1499 1499 1499 1499 1499 1499 1499 1499 1500 1500 1499
1504 1506 1506 1503 1500 1501 1500 1496 1491 1488 1488 1488 1487 1488 1488 1488 1489 1490 1491 1492 1493 1493 1494 1494 1494 1494 1494 1494 1494 1493 1493 1494 1495 1495 1495 1495 1495 1495 1495 1495 1495 1495 1495 1495 1495 1495 1495 1495 1495
1503 1506 1506 1503 1500 1500 1499 1496 1489 1486 1485 1484 1484 1484 1485 1486 1487 1488 1489 1489 1490 1491 1491 1492 1492 1492 1492 1492 1492 1491 1491 1492 1492 1492 1492 1492 1492 1491 1491 1491 1491 1491 1491 1491 1491 1491 1491 1491 1492
1504 1506 1505 1505 1502 1500 1500 1495 1489 1484 1483 1482 1482 1482 1483 1484 1485 1486 1487 1487 1488 1489 1489 1489 1490 1490 1490 1490 1489 1489 1489 1488 1489 1488 1488 1488 1488 1488 1487 1487 1487 1486 1486 1486 1486 1486 1487 1487 1488
1503 1501 1502 1503 1507 1508 1504 1505 1490 1485 1483 1481 1480 1480 1481 1482 1484 1484 1485 1485 1486 1487 1488 1488 1488 1488 1488 1487 1487 1486 1485 1485 1485 1485 1484 1484 1483 1483 1483 1483 1482 1482 1482 1482 1482 1482 1483 1483 1482
1500 1499 1501 1503 1506 1510 1506 1508 1493 1485 1483 1480 1478 1478 1479 1481 1482 1482 1483 1484 1485 1486 1486 1486 1486 1486 1486 1486 1485 1484 1483 1483 1482 1481 1480 1480 1480 1479 1479 1478 1478 1478 1478 1477 1477 1477 1477 1478 1478
1499 1501 1504 1507 1510 1510 1503 1506 1494 1486 1478 1476 1476 1477 1477 1478 1480 1481 1481 1482 1483 1483 1484 1484 1484 1484 1484 1483 1483 1481 1480 1479 1478 1477 1476 1476 1476 1475 1475 1474 1473 1473 1473 1473 1472 1472 1472 1472 1472
1500 1507 1515 1514 1518 1509 1500 1500 1490 1477 1474 1473 1474 1475 1476 1477 1478 1478 1479 1479 1480 1481 1481 1482 1482 1481 1481 1481 1480 1479 1478 1477 1475 1474 1473 1472 1471 1471 1470 1470 1469 1468 1469 1468 1467 1467 1467 1467 1467
1500 1502 1511 1514 1515 1509 1501 1498 1484 1474 1471 1471 1471 1473 1474 1475 1476 1476 1477 1477 1478 1479 1479 1479 1479 1479 1479 1478 1477 1477 1475 1474 1472 1471 1470 1469 1468 1467 1466 1466 1465 1464 1464 1463 1462 1462 1462 1462 1462
1499 1503 1502 1510 1513 1513 1501 1492 1480 1473 1472 1471 1471 1472 1473 1473 1474 1475 1475 1476 1476 1477 1477 1477 1477 1477 1476 1476 1474 1473 1472 1471 1469 1468 1466 1465 1464 1463 1463 1462 1461 1460 1459 1459 1457 1457 1456 1456 1456
1496 1499 1506 1509 1509 1506 1497 1491 1483 1475 1473 1472 1471 1471 1471 1472 1472 1473 1473 1474 1475 1475 1475 1475 1475 1474 1474 1473 1471 1470 1469 1468 1466 1464 1463 1461 1460 1460 1459 1458 1457 1456 1455 1454 1453 1452 1451 1451 1451
1498 1500 1501 1507 1508 1507 1503 1488 1470 1469 1468 1469 1469 1469 1469 1470 1470 1471 1472 1472 1473 1473 1473 1472 1472 1471 1470 1469 1468 1467 1466 1464 1463 1461 1459 1458 1457 1456 1455 1454 1453 1452 1451 1450 1449 1448 1447 1446 1446
1494 1495 1499 1504 1505 1506 1506 1488 1466 1466 1466 1467 1467 1468 1468 1469 1469 1470 1470 1470 1470 1470 1470 1470 1469 1468 1467 1466 1465 1464 1462 1461 1459 1457 1456 1455 1454 1453 1451 1450 1449 1448 1446 1445 1445 1443 1443 1442 1441